Temp
16 15 15 15 15 15 14 14 14 14 14 14 14 13 13 13 13 13 13 13 13 14 14 14 14 14 13 13 14 14 14 14 14 14 14 14 14 14 14 14 14 14 14 14 14 14 14 14 14 14 14 14 14 13 13 13 13 13 13 13 13 12 12 12 11 11 11 11 11
15 15 15 15 15 15 14 14 14 14 14 14 14 14 14 14 13 13 13 13 14 14 14 14 14 13 13 13 14 14 14 14 14 14 14 14 14 14 14 14 14 14 14 14 14 14 14 14 14 13 13 13 13 13 13 13 13 13 12 12 12 12 12 11 11 11 11 11 11
15 15 15 15 15 15 14 14 14 14 14 14 14 14 14 14 14 14 14 14 14 14 14 14 14 13 13 13 14 14 14 14 14 14 14 14 14 14 14 14 14 14 14 14 14 14 14 13 13 13 13 13 13 13 13 13 12 12 12 12 12 12 11 11 11 11 11 10 10
15 15 15 15 15 15 14 14 14 14 14 14 14 14 14 14 14 14 14 14 14 14 14 14 14 14 14 13 14 14 14 14 14 14 13 13 13 13 13 13 13 13 14 14 14 13 13 13 13 13 13 13 13 13 13 13 12 12 12 12 12 11 11 11 11 11 10 10 10
15 15 15 15 15 15 15 15 14 14 14 14 14 14 14 14 13 13 13 13 13 14 14 14 14 14 14 13 13 13 13 13 13 13 13 13 13 13 13 13 13 13 13 13 13 13 13 13 13 13 13 13 13 13 13 13 12 12 11 11 11 11 11 11 10 10 10 10 9
15 15 15 15 15 15 15 15 15 14 14 14 14 14 14 13 13 13 13 13 13 14 14 14 14 14 13 13 13 13 13 13 13 13 13 13 13 13 13 13 13 13 13 13 13 13 13 13 13 13 13 13 13 13 13 12 12 11 11 10 10 10 10 10 10 10 9 9 9
15 15 15 15 15 15 15 15 15 15 14 14 14 14 14 14 13 13 13 13 14 14 13 13 13 13 13 13 13 13 13 13 13 13 13 13 13 13 13 13 13 13 13 13 13 13 13 13 13 13 13 13 13 12 12 12 11 11 10 10 10 10 10 10 10 9 9 9 9
15 15 15 15 15 15 15 15 15 14 14 14 14 14 14 14 14 14 14 13 13 13 13 13 13 13 13 13 13 13 13 13 13 13 12 12 12 12 12 12 12 12 12 12 12 12 12 12 12 12 12 12 12 12 12 12 11 11 10 10 10 10 10 9 9 9 9 9 9
15 15 15 15 15 15 15 15 15 14 14 14 14 14 14 14 14 14 14 13 13 13 13 13 13 13 13 13 13 13 13 13 13 12 12 12 12 12 12 12 12 12 12 12 12 12 12 12 12 12 12 12 12 12 12 11 11 10 10 10 10 10 9 9 9 9 9 9 9
15 15 15 15 15 15 15 15 15 14 14 14 14 14 14 14 14 14 14 14 13 13 13 13 13 13 13 13 13 13 13 13 13 12 12 12 12 12 12 12 12 12 12 11 11 11 11 11 11 11 11 11 11 12 11 11 11 10 10 10 10 9 9 9 9 9 8 8 8
15 15 15 15 15 15 15 15 14 14 14 14 14 14 14 14 14 14 14 14 13 13 13 13 13 13 13 13 13 13 13 12 12 12 12 12 12 12 12 11 11 11 11 11 11 11 11 11 11 11 11 11 11 11 11 11 11 10 10 10 9 9 9 9 9 8 8 8 8
15 15 15 15 15 15 15 15 14 14 14 14 14 14 14 14 14 14 13 13 13 13 13 13 13 13 13 13 13 13 12 12 12 12 12 12 12 11 11 11 11 11 11 11 11 11 11 11 11 10 10 10 10 10 10 10 10 10 10 10 9 9 9 9 8 8 8 8 8
15 15 15 15 15 15 15 14 14 14 14 14 14 14 14 14 14 14 13 13 13 13 13 13 13 13 13 13 13 12 12 12 12 12 12 11 11 11 11 11 11 11 11 11 10 10 10 10 10 10 10 10 10 10 10 10 10 10 10 10 9 9 9 8 8 8 8 8 8
15 15 15 15 15 15 15 14 14 14 14 14 14 14 14 14 14 13 13 13 13 13 13 13 13 13 13 13 12 12 12 12 12 12 11 11 11 11 11 11 10 10 10 10 10 10 10 10 10 10 10 10 10 10 10 10 10 10 10 10 10 9 9 9 8 8 8 8 8
15 15 15 15 15 15 15 14 14 14 14 14 14 14 14 14 13 13 13 13 13 13 13 13 13 12 12 12 12 12 12 12 12 11 11 11 11 11 10 10 10 10 10 10 10 10 10 10 10 10 10 10 10 10 10 10 10 10 10 10 10 10 9 9 8 8 8 8 8
15 15 15 15 15 15 15 15 14 14 14 14 14 14 14 14 13 13 13 13 13 13 13 13 12 12 12 12 12 12 12 12 11 11 11 11 11 10 10 10 10 10 10 10 10 10 10 10 10 10 10 10 10 10 10 10 10 10 10 10 10 10 9 9 8 8 8 8 8
15 15 15 15 15 15 15 15 14 14 14 14 14 14 14 14 13 13 13 13 13 13 13 12 12 12 12 12 12 12 11 11 11 11 11 11 11 11 10 10 10 10 10 10 10 10 9 9 9 9 9 9 9 9 9 10 10 10 10 10 10 9 9 9 8 8 8 8 8
15 15 15 15 15 15 15 15 14 14 14 14 14 14 14 14 13 13 13 13 13 13 13 12 12 12 12 12 12 11 11 11 11 11 11 11 11 11 10 10 10 10 10 10 10 9 9 9 9 9 8 8 8 8 9 9 10 10 10 9 9 9 9 8 8 8 8 8 8
15 15 15 15 15 15 15 15 14 14 14 14 14 14 14 13 13 13 13 13 13 13 12 12 12 12 12 11 11 11 11 11 11 11 11 11 11 10 10 10 10 10 10 10 9 9 9 9 9 8 8 8 8 8 9 9 9 9 9 9 9 9 8 8 8 8 8 7 8
15 15 15 15 15 15 14 14 14 14 14 14 14 13 13 13 13 13 13 13 12 12 12 12 12 11 11 11 11 11 11 11 11 11 11 11 10 10 10 10 10 10 9 9 9 9 9 8 8 8 8 8 8 8 8 9 9 9 9 9 9 8 8 8 8 7 7 7 7
14 14 14 14 14 14 14 14 14 14 13 13 13 13 13 13 13 12 12 12 12 12 12 12 11 11 11 11 11 11 11 11 11 11 11 10 10 10 10 10 9 9 9 9 9 9 8 8 8 8 8 8 8 8 8 8 8 8 8 8 8 8 8 8 7 7 7 7 7
14 14 14 14 14 14 13 13 13 13 13 13 13 13 13 12 12 12 12 12 12 12 11 11 11 11 11 11 11 11 11 11 10 10 10 10 10 10 10 9 9 9 9 9 9 8 8 8 8 8 8 8 8 8 8 8 8 8 8 8 8 8 8 7 7 7 7 7 7
14 13 13 13 13 13 13 13 13 13 13 13 12 12 12 12 12 12 12 12 11 11 11 11 11 11 11 11 11 11 11 10 10 10 10 10 10 9 9 9 9 9 9 9 9 8 8 8 8 8 7 7 8 8 8 8 8 8 8 8 8 8 7 7 7 7 7 7 7
13 13 13 13 13 13 13 13 12 12 12 12 12 12 12 12 12 12 11 11 11 11 11 11 11 11 10 10 10 10 10 10 10 10 10 10 9 9 9 9 9 9 9 9 8 8 8 8 8 7 7 7 7 8 8 8 8 8 8 8 8 7 7 7 7 7 7 7 7
13 13 13 12 12 12 12 12 12 12 12 12 12 12 11 11 11 11 11 11 11 11 11 10 10 10 10 10 10 10 10 10 10 9 9 9 9 9 9 9 9 9 9 8 8 8 8 8 8 7 7 7 7 7 8 8 8 8 8 8 7 7 7 7 7 7 7 7 7
12 12 12 12 12 12 12 12 12 12 11 11 11 11 11 11 11 11 11 10 10 10 10 10 10 10 10 10 10 9 9 9 9 9 9 9 9 9 9 9 9 9 8 8 8 8 8 7 7 7 7 7 7 7 7 8 8 8 7 7 7 7 7 7 7 7 7 7 7
12 12 12 12 12 11 11 11 11 11 11 11 11 11 10 10 10 10 10 10 10 10 10 10 10 9 9 9 9 9 9 9 9 9 9 9 9 8 8 9 8 8 8 8 8 8 7 7 7 7 7 7 7 7 7 7 7 7 7 7 7 7 7 7 7 7 7 7 6
12 12 11 11 11 11 11 11 11 11 10 10 10 10 10 10 10 10 10 9 9 9 9 9 9 9 9 9 9 9 9 9 9 9 8 8 8 8 8 8 8 8 8 8 8 7 7 7 7 7 7 7 7 7 7 7 7 7 7 7 7 7 6 6 6 6 6 6 6
11 11 11 11 11 11 11 10 10 10 10 10 10 9 9 9 9 9 9 9 9 9 9 9 9 9 9 8 8 8 8 8 8 8 8 8 8 8 8 8 8 8 8 8 7 7 7 6 6 6 6 6 6 7 7 7 7 7 7 7 6 6 6 6 6 6 6 7 7
11 11 11 11 10 10 10 10 10 10 9 9 9 9 9 9 9 9 9 9 8 8 8 8 8 8 8 8 8 8 8 8 8 8 8 8 8 8 8 8 8 7 7 7 7 7 7 6 6 6 6 6 6 6 6 6 6 6 6 6 6 6 6 6 6 7 7 7 7
10 10 10 10 10 10 10 9 9 9 9 9 9 9 8 8 8 8 8 8 8 8 8 8 8 8 8 8 8 8 8 8 8 8 8 7 7 7 7 7 7 7 7 7 7 7 6 6 6 5 5 5 5 6 6 6 6 6 6 6 6 7 7 7 6 6 6 6 6
10 10 10 10 9 9 9 9 9 9 8 8 8 8 8 8 8 8 8 8 8 8 8 8 8 8 8 7 7 7 7 7 7 7 7 7 7 7 7 7 7 7 7 7 7 6 6 6 5 5 5 5 5 5 6 6 6 6 6 7 7 6 6 6 6 6 6 6 5
9 9 9 9 9 9 9 8 8 8 8 8 8 8 8 8 8 8 8 7 7 7 7 7 7 7 7 7 7 7 7 7 7 7 7 7 7 7 7 7 7 7 7 6 6 6 6 6 5 5 5 5 5 5 6 6 6 6 6 6 6 6 6 6 5 5 5 5 5
9 9 9 9 9 8 8 8 8 8 8 8 8 8 8 8 7 7 7 7 7 7 7 7 7 7 7 7 7 7 7 7 7 7 7 7 7 7 6 6 6 6 6 6 6 6 6 6 6 6 6 5 5 5 5 6 6 6 6 5 5 5 5 5 5 5 5 5 5
9 9 9 8 8 8 8 8 8 8 8 8 8 8 7 7 7 7 7 7 7 7 7 7 7 7 7 7 7 6 6 6 6 6 6 6 6 6 6 6 6 6 6 6 6 6 6 6 6 6 6 6 5 5 5 5 5 5 5 5 5 5 5 5 5 5 5 5 4
8 8 8 8 8 8 8 8 8 8 8 8 7 7 7 7 7 7 7 7 7 7 7 7 7 7 6 6 6 6 6 6 6 6 6 6 6 6 6 6 6 6 6 6 6 6 6 6 6 6 6 5 5 5 5 5 5 5 5 5 5 5 5 5 5 5 5 4 4
8 8 8 8 8 8 8 8 8 8 8 7 7 7 7 7 7 7 7 7 7 7 7 7 7 7 6 6 6 6 6 6 6 6 6 6 6 6 6 6 6 6 6 6 6 6 6 6 6 5 5 5 5 5 5 5 5 5 5 5 5 5 5 5 5 4 4 4 4
8 8 8 8 8 8 8 8 8 8 8 7 7 7 7 7 7 7 7 7 7 7 7 7 7 6 6 6 6 6 6 6 6 6 6 6 6 6 6 6 6 6 6 5 5 5 5 5 5 5 5 5 5 5 5 5 5 5 5 5 5 5 5 4 4 4 4 4 4
8 8 8 8 8 8 8 8 8 8 7 7 7 7 7 7 7 7 7 7 7 7 7 6 6 6 6 6 6 6 6 6 6 6 6 5 5 5 5 5 5 5 5 5 5 5 5 5 5 4 4 4 4 4 4 5 5 4 4 4 4 4 4 4 4 4 3 3 3
8 8 8 8 8 8 8 8 7 7 7 7 7 7 7 7 7 7 7 6 6 6 6 6 6 6 6 6 6 6 6 6 6 5 5 5 5 5 5 5 5 5 5 5 4 4 4 4 4 4 4 4 4 4 4 4 4 4 4 4 4 4 4 3 3 3 3 3 3
8 8 8 8 8 8 8 7 7 7 7 7 7 7 7 7 7 7 6 6 6 6 6 6 6 6 6 6 6 6 5 5 5 5 5 5 5 4 4 4 4 4 4 4 4 4 4 4 4 4 4 4 4 4 4 4 4 4 3 3 3 3 3 3 3 3 2 2 2
Height
766 768 768 769 770 771 772 773 775 776 777 778 779 780 781 783 784 785 786 787 788 788 789 790 791 792 793 794 794 795 797 797 798 799 800 800 801 802 803 803 804 805 806 807 808 808 809 810 810 811 811 812 812 813 813 813 813 814 814 814 814 815 815 815 815 816 816 816 817
765 766 768 769 770 771 772 773 774 775 776 777 778 779 781 782 783 783 784 785 786 787 788 789 790 791 792 793 793 794 795 796 797 798 798 799 800 801 801 802 803 804 805 806 806 807 808 808 809 809 810 810 811 811 812 812 812 813 813 813 813 813 814 814 814 814 815 815 816
764 766 767 768 769 770 771 772 773 774 776 777 778 779 780 781 782 783 783 784 785 786 787 788 789 790 791 791 792 793 794 795 795 796 797 798 798 799 800 801 802 803 803 804 805 806 806 807 808 808 808 809 809 810 810 810 811 811 811 811 811 812 812 813 813 813 814 814 815
763 765 766 767 768 769 770 771 773 774 775 776 778 778 779 780 781 782 783 784 785 785 786 787 788 788 789 790 791 792 793 793 794 795 796 796 797 798 799 800 801 802 802 803 804 804 805 806 806 807 807 807 808 808 808 808 809 809 810 810 810 811 811 811 812 813 813 814 814
763 764 765 766 767 768 769 771 772 773 774 776 777 778 779 780 781 781 782 783 783 784 785 786 787 788 788 789 790 791 792 793 793 794 795 795 796 797 798 799 799 800 801 802 802 803 804 804 805 805 805 806 806 806 807 808 808 808 809 809 810 810 810 811 812 812 813 813 813
762 763 764 765 767 768 769 770 771 773 774 775 776 777 778 779 779 780 781 782 782 783 784 785 786 787 787 788 789 790 791 791 792 793 793 794 795 796 797 798 798 799 800 800 801 802 803 803 803 804 804 804 805 805 806 807 807 808 808 808 809 809 810 810 811 812 812 813 813
761 762 763 765 766 767 768 770 771 772 773 774 775 775 776 777 778 779 779 780 781 783 783 784 785 786 786 787 788 789 789 790 791 792 793 793 794 795 796 796 797 798 798 799 800 801 801 802 802 802 803 803 803 804 805 806 806 807 808 808 808 809 809 810 810 811 811 812 812
760 761 763 764 765 767 768 769 770 771 772 773 773 774 775 776 777 778 778 779 780 781 782 783 784 784 785 786 787 788 788 789 790 791 792 792 793 794 794 795 796 797 797 798 799 799 800 801 801 801 801 801 802 803 803 804 805 806 806 807 808 808 808 809 809 810 810 811 812
759 761 762 763 764 766 767 768 769 770 771 772 772 773 774 775 776 777 778 778 779 780 781 782 783 783 784 785 786 786 787 788 789 789 790 791 792 793 793 794 795 795 796 797 798 798 799 799 799 800 800 800 800 801 802 803 804 804 805 806 807 807 808 808 808 809 809 810 811
758 760 761 763 763 765 766 767 768 769 770 770 771 772 773 774 775 776 776 777 778 779 780 781 782 783 783 784 785 785 786 787 788 788 789 790 791 791 792 793 793 794 794 795 796 797 797 798 798 798 798 799 799 800 800 801 802 803 804 805 806 806 807 807 808 808 808 808 809
758 759 760 762 763 764 765 766 767 768 769 770 771 772 773 773 774 775 776 777 778 778 779 779 781 781 782 783 783 784 785 786 787 788 788 789 789 790 790 791 792 792 793 793 794 795 796 796 797 797 797 798 798 798 799 800 801 802 803 804 805 805 806 806 806 806 806 807 808
757 758 759 761 762 763 764 765 766 767 768 769 770 771 772 772 773 774 775 776 777 777 778 779 779 780 781 782 783 783 784 785 786 786 787 788 788 788 789 790 790 791 791 792 793 793 794 794 795 795 796 796 797 797 798 799 800 801 802 803 803 804 804 805 805 805 805 806 807
756 758 759 760 761 762 763 764 765 766 767 768 769 770 771 772 773 773 774 775 775 776 777 778 779 779 780 781 782 783 783 784 784 785 786 786 787 787 788 788 789 789 790 791 791 792 792 793 793 794 794 795 795 796 797 798 799 800 800 801 802 802 803 803 804 804 804 805 805
756 757 758 759 760 761 762 763 764 765 766 767 768 769 770 771 772 773 773 774 775 776 776 777 778 779 779 780 781 781 782 783 783 784 784 785 785 786 787 787 788 788 789 789 790 790 791 791 792 793 793 793 794 795 795 797 798 798 799 799 800 800 801 802 803 803 803 804 804
755 756 757 758 759 760 761 763 763 765 766 767 768 768 769 770 771 772 773 773 774 775 776 776 777 778 778 779 780 780 781 782 782 783 783 784 784 785 785 786 786 787 788 788 789 789 790 790 791 791 792 792 792 793 794 795 796 796 797 797 798 798 799 800 801 802 803 803 803
754 756 757 758 759 760 761 762 763 764 765 766 767 768 769 769 770 771 772 773 773 774 775 775 776 777 777 778 778 779 780 781 781 782 782 783 783 784 784 785 785 786 786 787 788 788 788 789 789 790 790 791 791 792 793 793 794 794 795 795 796 797 798 799 800 801 801 802 803
754 755 756 757 758 759 760 762 763 763 764 765 766 767 768 769 770 770 771 772 773 773 774 774 775 776 776 777 778 778 779 779 780 780 781 781 782 782 783 783 783 784 785 785 786 787 787 788 788 789 789 790 791 791 792 793 793 793 794 794 795 796 797 798 799 800 801 801 802
754 755 756 757 758 759 760 761 762 763 764 765 766 767 768 768 769 770 770 771 772 772 773 773 774 775 775 776 777 777 778 778 779 779 780 780 781 781 782 782 782 783 783 784 785 785 786 787 787 788 789 789 790 791 792 793 793 793 794 794 795 796 797 798 798 799 800 800 801
754 755 756 757 758 759 760 761 762 763 763 764 765 766 767 768 768 769 770 771 771 772 773 773 774 774 775 776 776 777 777 778 778 778 779 780 780 781 781 782 782 782 783 783 784 784 785 786 787 787 788 789 790 790 791 792 793 793 794 794 795 795 796 797 798 798 799 799 800
753 754 755 756 758 758 759 760 762 763 763 764 765 766 767 768 768 769 770 770 771 772 772 773 773 774 775 775 776 776 777 778 778 778 779 779 780 780 781 781 782 782 783 783 783 784 785 785 786 787 788 788 789 789 790 791 792 793 793 794 794 795 795 796 797 797 798 798 799
753 754 755 756 758 758 759 760 762 763 763 764 765 766 767 768 768 769 769 770 771 772 772 773 773 774 774 775 775 776 776 777 778 778 778 779 779 780 780 781 781 782 782 783 783 784 784 785 785 786 787 788 788 789 789 790 791 792 792 793 793 794 795 795 796 797 797 797 798
754 755 756 757 758 759 760 761 762 763 763 764 765 766 767 768 768 769 769 770 771 771 772 772 773 773 774 774 775 776 776 777 777 778 778 778 779 779 780 780 781 781 781 782 782 783 783 784 785 786 786 787 788 788 789 789 790 791 792 792 793 793 794 795 795 795 796 796 796
754 755 756 757 758 759 760 761 762 763 764 764 765 766 767 768 768 769 769 770 771 771 772 772 773 773 774 774 775 775 776 776 777 777 778 778 778 779 779 779 780 780 781 781 782 782 783 784 784 785 786 786 787 788 788 789 789 790 791 791 792 793 793 793 794 794 794 795 795
755 756 757 758 758 759 760 761 762 763 764 764 765 766 767 767 768 768 769 770 770 771 771 772 772 773 773 774 774 775 775 776 776 777 777 778 778 778 778 779 779 779 780 780 781 782 783 783 784 784 785 785 786 787 788 788 789 789 790 791 791 792 792 793 793 793 793 793 793
755 756 757 758 759 759 760 761 762 763 764 764 765 766 767 767 768 768 769 769 770 770 771 771 772 772 773 773 774 774 775 775 776 776 777 777 777 778 778 778 779 779 780 780 781 782 782 783 783 784 784 785 786 786 787 788 788 789 789 790 790 791 791 791 792 792 792 792 792
755 756 757 758 759 760 760 761 762 763 764 764 765 766 766 767 768 768 768 769 769 770 770 771 771 772 772 773 773 774 774 775 775 776 776 777 777 777 778 778 778 779 779 780 781 781 782 782 783 783 784 784 785 786 786 787 787 788 788 789 789 790 790 790 790 790 791 791 791
755 756 757 758 759 760 761 761 762 763 763 764 765 765 766 767 767 768 768 769 769 770 770 771 771 771 772 773 773 773 774 774 775 775 776 776 777 777 777 778 778 778 779 780 780 781 781 782 782 783 783 784 784 785 786 786 787 787 788 788 788 789 789 789 789 789 789 789 790
756 757 757 758 759 760 761 761 762 763 763 764 765 765 766 766 767 768 768 768 769 769 770 770 771 771 772 772 773 773 773 774 774 775 775 776 776 777 777 777 778 778 779 779 780 780 781 781 782 782 783 783 784 784 785 785 786 787 787 787 788 788 788 788 788 788 788 788 789
756 757 758 758 759 760 761 761 762 763 763 764 764 765 766 766 767 767 768 768 769 769 769 770 770 771 771 772 772 773 773 774 774 775 775 775 776 776 776 777 777 778 778 779 780 780 781 781 782 782 782 783 783 784 784 785 785 786 786 787 787 787 787 787 788 788 788 788 788
756 757 758 758 759 760 761 761 762 763 763 764 764 765 765 766 767 767 768 768 768 769 769 770 770 771 771 772 772 773 773 773 774 774 775 775 775 776 776 776 777 777 778 779 779 780 780 781 782 782 782 783 783 783 784 784 785 785 786 786 786 787 787 787 787 787 787 787 787
757 758 758 759 759 760 761 761 762 763 763 764 764 765 765 766 767 767 768 768 768 769 769 770 770 771 771 771 772 772 773 773 773 774 774 774 775 775 776 776 777 777 778 778 779 780 780 781 781 782 782 783 783 783 783 784 784 785 785 785 786 786 786 786 786 786 786 786 786
757 758 758 759 760 760 761 762 762 763 763 764 764 765 766 766 767 767 768 768 768 769 769 770 770 770 771 771 772 772 773 773 773 773 774 774 774 775 775 776 776 777 778 778 779 779 780 781 781 782 782 783 783 783 783 783 784 784 784 785 785 785 785 785 785 785 785 785 784
757 758 759 759 760 761 761 762 763 763 764 764 765 765 766 766 767 767 768 768 768 769 769 770 770 770 771 771 772 772 772 773 773 773 774 774 774 775 775 776 776 777 778 778 779 779 780 780 781 781 782 782 783 782 783 783 783 783 783 783 784 784 784 784 784 784 784 783 783
758 758 759 760 760 761 762 762 763 763 764 765 765 766 766 767 767 767 768 768 768 769 769 770 770 771 771 771 772 772 772 773 773 773 774 774 774 775 775 776 776 777 778 778 779 779 780 780 780 781 781 782 782 782 782 782 783 783 783 783 783 783 783 783 783 783 783 782 782
758 759 759 760 761 762 762 763 763 764 764 765 765 766 766 767 767 768 768 768 769 769 769 770 770 771 771 772 772 772 773 773 773 773 774 774 774 775 775 776 776 777 778 778 779 779 779 780 780 781 781 782 782 782 782 782 782 782 782 782 782 782 782 782 781 781 781 781 780
759 759 760 761 761 762 763 763 764 764 765 765 766 766 767 767 768 768 768 768 769 769 770 770 771 771 771 772 772 772 773 773 773 774 774 774 775 775 775 776 777 777 778 778 779 779 779 780 780 781 781 782 782 782 782 782 782 782 782 781 781 781 781 781 780 780 780 779 779
759 760 761 761 762 763 763 763 764 765 765 766 766 767 767 767 768 768 768 769 769 770 770 770 771 771 772 772 772 773 773 773 773 774 774 775 775 775 776 776 777 777 778 778 779 779 780 780 780 781 781 781 781 782 782 782 781 781 781 781 780 780 780 780 779 779 779 778 778
760 761 761 762 762 763 763 764 764 765 765 766 767 767 767 768 768 768 769 769 770 770 770 771 771 772 772 772 773 773 773 774 774 774 775 775 775 776 776 776 777 778 778 779 779 779 780 780 780 781 781 781 781 781 781 781 780 780 780 780 779 779 779 779 778 778 778 777 777
761 761 762 762 763 763 764 764 765 765 766 766 767 767 768 768 768 769 769 770 770 770 771 771 772 772 772 773 773 773 774 774 774 775 775 775 776 776 777 777 778 778 779 779 779 779 779 780 780 780 780 780 780 780 780 779 779 779 778 778 778 778 778 777 777 776 776 776 775
761 762 762 763 763 764 764 765 765 766 766 767 767 768 768 768 769 769 770 770 771 771 771 772 772 772 773 773 773 774 774 775 775 775 776 776 777 777 777 778 778 778 778 779 779 779 779 779 779 779 779 779 779 779 779 778 778 778 777 777 777 776 776 776 775 775 774 774 774
762 763 763 763 764 764 765 765 766 766 767 768 768 768 769 769 769 770 770 771 771 772 772 772 773 773 773 773 774 774 775 775 776 776 776 777 777 777 777 777 778 778 778 778 778 778 778 778 778 778 778 778 778 778 778 777 777 776 776 776 776 775 775 774 774 774 773 773 773
Wind_Speed
29 30 30 30 31 31 31 30 30 30 30 30 31 31 30 30 30 31 32 33 34 35 36 37 38 38 38 38 39 39 40 40 40 40 40 40 39 39 38 37 36 35 33 32 32 31 31 31 31 30 29 29 28 27 26 25 25 24 23 22 22 21 20 20 20 19 19 18 17
30 30 30 30 30 30 30 30 29 29 29 30 31 31 31 31 31 31 32 33 34 35 36 36 37 37 37 38 39 39 40 40 41 41 40 40 40 39 39 38 37 35 34 33 32 32 32 32 31 31 30 29 28 28 27 26 25 25 24 24 22 22 21 21 21 20 19 18 17
30 29 29 29 29 29 30 29 29 29 29 29 30 31 31 31 31 32 32 33 34 35 35 35 36 37 37 38 39 39 40 40 41 41 41 41 40 39 39 38 37 36 35 34 33 32 32 32 32 31 31 30 30 29 28 28 27 26 25 25 23 23 22 22 21 20 19 18 17
30 29 29 29 29 29 30 30 30 29 29 29 30 30 31 31 31 31 32 33 33 34 35 35 36 36 37 38 39 39 40 40 41 41 41 41 40 40 39 38 37 36 35 34 33 33 32 32 32 32 31 31 31 30 29 29 28 27 26 25 24 24 23 22 21 20 19 18 18
29 29 29 29 29 30 30 30 30 30 30 30 30 30 30 30 30 31 31 32 33 34 35 36 36 36 37 37 38 39 39 40 40 41 41 41 40 40 39 38 37 37 36 35 34 33 33 32 32 32 32 32 31 31 30 29 28 27 26 26 25 25 24 22 21 20 19 18 18
29 29 29 29 29 29 30 30 30 30 30 30 30 30 30 30 30 30 31 32 33 34 35 35 35 36 36 37 38 38 39 39 40 40 40 40 40 39 39 38 38 37 37 36 35 34 33 33 33 33 33 33 32 32 31 30 28 27 27 27 26 25 24 23 22 20 19 19 18
29 29 29 29 29 29 30 30 30 30 30 30 30 31 31 31 31 31 32 33 33 34 34 35 35 36 36 37 37 38 38 39 39 40 40 40 39 39 39 38 38 38 37 36 36 35 34 34 34 34 34 33 33 32 31 30 28 28 27 27 27 26 25 24 22 21 20 19 19
29 30 30 30 30 30 30 30 30 29 30 30 31 31 32 32 32 32 33 33 33 33 34 35 35 36 37 37 37 38 38 39 39 39 39 39 39 39 39 38 38 38 37 37 36 35 35 35 34 35 34 34 33 33 31 30 29 28 28 28 27 26 25 24 22 21 20 19 19
28 29 30 30 30 31 31 31 30 30 30 30 31 32 32 32 33 33 33 33 33 34 34 35 35 36 37 37 37 38 38 38 39 39 39 39 39 39 38 38 38 38 37 37 36 35 35 35 35 35 35 35 34 33 32 30 29 28 28 28 27 26 25 24 23 21 20 19 19
28 29 30 30 30 31 31 31 30 30 30 31 31 32 32 32 32 33 33 33 33 33 34 34 35 35 36 36 37 37 38 38 39 39 39 39 39 39 38 38 38 38 37 37 36 36 35 35 35 35 35 35 34 33 32 30 29 28 28 27 26 26 25 24 23 22 21 20 19
29 29 30 30 31 31 30 30 30 30 30 30 30 31 31 31 32 32 33 33 32 33 33 34 34 35 35 36 37 37 37 38 38 38 38 39 39 39 39 39 38 38 37 37 37 36 36 36 36 36 35 35 34 33 32 31 29 28 27 27 26 26 26 25 24 23 21 20 20
28 29 30 30 30 30 30 30 29 29 29 29 29 30 30 31 31 32 32 32 32 32 33 33 34 34 35 35 36 36 37 37 37 37 38 38 39 39 39 39 38 38 37 37 37 36 36 36 36 36 35 35 34 33 31 30 29 27 27 26 26 27 26 26 25 23 22 20 20
28 28 29 30 30 30 30 30 29 29 29 29 29 29 29 30 30 30 31 31 31 32 32 32 33 33 34 34 35 35 36 36 36 37 37 37 38 38 38 38 38 37 37 37 36 36 36 36 35 35 35 34 34 33 32 30 28 27 26 27 27 27 27 27 25 24 22 21 20
27 27 28 29 30 30 30 30 29 29 29 28 28 28 28 28 29 29 30 30 31 31 31 32 32 32 33 33 34 34 35 35 36 36 36 36 37 37 37 37 37 37 36 36 36 36 36 35 35 35 35 35 35 34 32 30 28 27 27 28 28 28 28 27 26 24 23 21 20
26 27 28 28 29 29 30 29 29 29 28 28 28 28 28 28 28 29 29 29 30 31 31 31 31 32 32 32 33 33 34 34 34 34 35 35 35 36 36 36 36 36 36 36 36 36 36 36 36 36 36 36 36 35 33 31 29 28 28 29 29 28 27 26 25 24 23 21 20
25 26 27 27 28 28 28 28 28 28 28 28 28 28 27 27 27 28 28 28 29 30 30 31 31 31 31 31 32 32 32 33 33 33 33 34 34 35 35 36 36 36 36 36 36 36 36 36 36 37 37 36 36 35 33 31 30 29 29 29 28 27 26 26 24 23 22 20 19
23 24 25 25 26 26 27 27 27 27 27 27 27 27 27 27 27 27 27 28 29 29 30 30 31 31 31 31 31 31 31 31 32 32 33 33 34 34 35 35 36 37 37 37 36 36 37 37 37 36 36 35 35 34 32 31 30 30 29 28 27 26 25 24 23 22 20 18 17
21 22 22 23 24 24 25 25 26 26 26 26 26 26 26 26 26 26 27 27 28 29 29 30 30 30 30 30 30 30 30 30 31 32 32 33 33 33 34 35 36 36 37 37 37 37 37 36 36 35 35 34 33 32 31 31 30 29 28 27 26 25 24 23 21 20 19 18 17
19 19 20 20 21 22 22 23 24 24 24 24 24 24 24 24 25 25 26 26 27 28 28 28 28 28 28 28 29 29 29 29 30 31 31 31 32 32 32 33 34 34 35 35 36 36 36 36 35 34 33 32 32 31 31 30 29 28 27 26 25 24 23 22 20 19 18 17 17
17 17 18 18 18 19 19 20 21 21 22 22 22 22 22 23 23 24 24 25 26 26 26 26 27 27 27 27 27 27 28 28 29 29 30 30 30 30 31 31 32 32 33 33 34 34 34 34 34 33 32 32 31 31 30 29 28 27 26 25 24 23 22 20 19 19 18 18 17
15 15 15 16 16 16 17 18 19 19 19 20 20 20 21 21 22 22 23 23 24 24 24 24 25 25 25 26 26 26 27 27 28 28 28 29 29 29 30 30 30 31 31 32 32 33 33 33 33 32 32 31 31 30 30 29 27 26 25 24 23 22 21 20 19 19 19 18 17
14 14 13 13 14 14 15 16 16 17 17 18 18 18 18 19 19 20 20 21 21 22 22 23 23 24 24 25 25 25 26 26 27 27 27 27 28 28 28 29 29 29 30 30 31 31 31 31 31 31 31 30 30 30 29 28 27 25 24 23 22 21 20 20 20 19 19 18 17
12 12 12 12 12 13 14 14 15 15 15 16 16 16 16 17 17 18 18 19 19 20 20 21 21 22 22 23 23 24 24 25 25 26 26 26 27 27 27 28 28 29 29 30 30 30 30 30 30 30 30 30 29 29 28 27 26 25 24 23 22 21 21 20 20 19 19 18 17
11 11 11 11 11 12 12 13 13 13 14 14 14 14 14 15 15 16 16 17 17 18 18 19 19 20 21 21 22 23 23 24 25 25 25 26 26 26 27 27 27 28 28 28 28 28 28 28 28 29 29 29 29 28 27 26 25 24 23 22 21 21 20 20 20 19 19 18 18
10 9 9 10 10 10 11 11 11 12 12 12 12 12 13 13 13 14 14 15 16 16 17 18 18 19 19 20 21 21 22 23 24 24 25 25 25 25 26 26 26 27 27 27 26 26 26 26 27 27 28 28 27 26 25 25 24 23 22 21 21 21 20 20 20 20 19 19 20
9 8 8 8 8 8 8 9 9 9 9 10 10 11 11 11 12 12 13 14 14 15 16 16 17 18 18 19 20 20 21 22 22 23 24 24 24 24 25 25 25 25 25 25 24 24 24 24 25 26 26 26 26 25 24 23 22 22 21 21 21 21 21 21 21 21 21 22 22
8 7 7 6 6 6 6 6 6 6 7 8 8 9 10 10 11 11 12 13 13 14 15 15 16 17 17 18 19 19 20 21 21 22 22 23 23 23 23 24 24 24 24 24 23 22 22 23 23 24 24 24 24 24 23 22 21 21 21 21 21 22 22 23 23 24 24 24 24
7 6 6 5 4 4 4 4 4 4 5 6 7 7 8 9 9 10 11 11 12 13 13 14 15 16 16 17 17 18 18 19 19 20 20 21 21 22 22 22 23 23 23 22 21 21 21 21 21 22 22 23 23 22 22 21 21 20 21 21 22 23 23 24 24 25 25 25 24
5 5 4 4 3 3 2 2 2 3 3 4 5 6 7 7 8 9 9 10 11 12 12 13 14 14 15 15 16 16 17 17 17 18 18 19 19 20 20 21 21 21 21 20 20 19 19 19 19 19 20 21 21 21 20 20 20 21 21 22 22 23 24 24 24 24 24 24 24
4 4 3 2 2 1 1 1 1 2 2 3 4 5 5 6 6 7 8 9 9 10 11 11 12 13 13 14 14 14 15 15 15 16 16 17 18 18 19 19 19 19 19 18 18 17 17 17 17 17 18 18 19 19 19 19 20 20 21 21 22 22 23 23 23 23 23 24 24
4 4 3 3 2 2 1 1 0 1 1 2 3 3 4 5 5 6 7 7 8 9 9 10 10 11 12 12 12 13 13 13 14 14 15 16 16 17 17 18 18 18 17 16 16 15 15 15 15 15 15 16 17 17 18 18 19 19 20 20 20 21 21 22 22 23 23 24 24
5 5 4 4 3 3 2 2 1 1 1 1 2 2 3 3 4 5 5 6 7 7 8 8 9 9 10 10 11 11 12 12 12 13 13 14 15 15 16 16 16 16 15 14 14 14 14 14 14 14 14 14 15 16 17 17 17 18 18 19 19 20 20 21 22 22 23 23 24
6 6 5 5 4 4 3 3 2 1 1 1 1 1 1 2 2 3 4 4 5 6 7 7 8 8 9 9 10 10 11 11 11 11 12 13 13 14 14 15 15 14 13 13 12 12 12 13 14 14 14 14 15 16 16 17 17 17 18 18 19 20 20 21 22 23 23 24 25
7 7 7 6 5 5 4 4 3 2 2 1 1 1 0 1 1 2 2 3 4 4 5 6 6 7 7 8 8 9 9 10 10 10 11 11 12 13 13 13 13 12 12 11 11 11 11 12 12 13 13 14 14 15 16 17 17 18 19 20 20 21 22 22 23 24 25 25 26
8 8 8 7 6 6 5 5 4 3 3 2 2 2 2 2 1 1 1 2 3 3 4 4 5 5 6 6 7 7 8 8 8 9 9 10 11 11 12 12 11 11 11 10 10 10 10 10 10 10 11 12 13 14 15 16 18 19 20 21 22 23 23 24 25 26 26 27 27
9 9 9 8 7 7 6 5 5 4 4 3 3 3 3 2 2 1 1 1 2 2 3 3 4 4 5 5 6 6 6 7 7 7 8 8 9 10 11 10 10 9 9 9 8 8 8 8 8 9 9 10 12 13 15 16 18 19 21 22 23 24 25 25 26 26 26 27 26
10 9 9 9 8 7 6 6 5 5 4 4 4 3 3 3 2 2 1 1 1 2 2 2 3 3 4 4 5 5 5 6 6 6 7 7 7 8 9 8 8 7 7 7 7 7 8 8 8 9 10 11 12 14 15 17 18 20 21 22 23 24 24 24 24 24 24 24 23
10 10 9 9 8 8 7 6 6 5 5 5 5 4 3 3 2 2 1 1 1 1 2 2 2 3 3 4 4 4 4 4 5 5 5 6 6 6 7 7 7 6 6 7 7 8 9 9 10 10 11 12 13 15 16 17 19 20 21 21 22 22 22 21 21 21 20 20 20
11 10 9 9 9 8 8 7 7 7 6 6 5 5 4 3 3 2 2 1 1 1 2 2 2 2 3 3 3 3 3 4 4 4 5 5 5 6 7 7 7 7 7 8 9 9 10 10 11 11 11 12 13 14 15 17 18 18 19 19 19 19 18 18 17 17 17 16 16
11 10 10 9 9 9 9 9 9 8 8 7 7 6 5 4 4 3 3 2 2 2 2 2 2 2 2 2 3 3 3 4 4 4 4 5 5 5 6 7 8 8 8 9 9 9 9 9 9 9 9 10 11 12 13 14 15 15 15 15 15 16 16 16 15 15 15 14 14
12 11 11 10 10 10 10 11 10 10 9 9 8 7 6 5 5 4 3 3 3 3 3 3 3 2 2 2 3 3 4 4 4 4 4 4 4 5 6 7 7 7 7 7 7 7 7 6 6 7 7 8 9 10 11 12 13 13 14 14 15 15 15 15 15 14 13 13 13
Wind_Direction
207 206 207 207 208 208 207 207 207 207 207 206 204 204 206 206 208 209 211 213 214 216 218 219 219 219 219 218 218 217 217 218 219 220 221 223 224 225 226 227 227 228 228 228 227 226 225 225 224 225 226 226 226 225 225 223 221 220 220 220 220 219 218 218 218 218 218 218 219
207 207 207 207 208 208 208 207 207 208 208 208 208 208 208 209 210 211 213 214 216 218 219 220 220 220 219 219 219 219 218 219 219 220 221 223 224 225 226 227 228 228 229 229 228 227 226 225 224 225 226 226 226 226 225 224 223 222 221 221 220 219 218 218 219 219 219 219 220
207 207 207 207 208 208 208 207 207 208 209 210 211 211 211 212 213 214 215 216 218 219 219 220 220 220 220 220 220 220 220 220 220 221 221 223 224 225 226 227 228 228 229 229 229 228 227 226 225 225 226 226 226 226 225 224 223 222 222 222 221 220 219 219 219 220 220 221 221
208 207 206 207 208 209 209 209 209 209 211 212 212 213 214 215 215 216 217 218 218 219 219 220 221 221 221 221 221 221 221 221 221 221 222 223 224 225 226 227 228 228 229 230 230 229 228 227 226 226 227 227 227 227 226 225 223 222 223 223 223 222 221 221 220 220 220 222 222
208 207 207 208 209 211 212 212 212 212 213 214 214 214 215 215 216 217 217 218 218 219 221 221 222 222 222 222 222 221 221 221 221 221 222 223 224 225 226 227 228 229 230 230 230 230 229 228 227 227 228 229 229 229 228 226 224 223 223 225 225 225 224 223 222 221 222 223 224
207 208 208 209 211 212 214 215 215 215 215 215 215 215 215 216 216 217 218 218 220 221 222 222 222 222 222 222 222 222 222 221 221 221 222 223 224 225 226 227 228 229 230 231 231 230 229 228 228 228 229 230 231 231 230 228 226 224 224 225 226 226 226 225 224 223 223 225 226
207 208 208 210 212 213 215 216 217 217 217 217 216 216 217 217 218 218 220 221 222 222 222 222 222 222 223 223 223 223 222 222 222 222 222 223 224 225 226 227 228 229 230 231 231 230 229 228 228 228 230 231 231 231 230 228 227 226 226 227 226 226 225 225 225 224 225 226 228
208 208 209 210 212 214 216 218 217 217 217 217 218 218 219 220 220 221 222 223 222 222 223 223 223 224 224 224 224 224 224 223 223 223 223 224 225 226 227 228 228 229 230 231 231 230 229 229 228 229 229 230 230 230 230 228 227 226 227 228 227 227 226 225 225 225 226 228 230
208 208 210 211 213 216 217 218 218 217 217 218 220 221 222 222 223 223 223 223 224 224 225 225 225 226 226 226 226 226 226 225 224 224 224 225 225 226 227 228 228 229 230 231 230 230 230 229 229 229 230 231 231 230 230 228 227 226 227 228 228 227 226 225 225 225 226 228 232
207 208 210 211 213 216 218 218 219 219 219 220 221 223 223 224 224 224 225 225 226 226 226 226 227 227 227 228 228 228 228 227 227 226 226 226 226 227 228 228 229 229 230 230 230 230 230 229 229 230 231 232 232 231 230 229 227 226 227 228 228 228 227 226 225 225 226 227 231
208 209 210 212 213 215 217 217 218 219 220 221 222 223 224 224 225 226 227 228 227 227 227 229 228 228 228 229 230 230 230 229 229 228 227 227 228 228 229 230 230 230 230 230 230 230 229 229 229 230 231 231 232 231 230 229 227 226 226 227 228 228 228 227 226 225 225 226 229
210 211 212 213 214 215 216 216 217 218 220 221 223 224 224 225 226 227 228 227 227 228 230 231 230 230 231 231 231 231 231 231 230 230 229 229 229 230 230 231 231 231 231 231 230 229 229 228 229 229 229 230 231 231 230 229 227 226 226 227 228 228 229 228 227 226 225 226 228
211 212 212 213 214 214 215 216 218 219 220 221 223 225 226 227 228 228 228 228 229 230 231 232 232 232 232 233 233 232 232 232 232 231 231 231 231 231 231 232 232 232 232 231 231 230 229 229 229 229 229 230 231 231 231 230 228 226 226 226 227 228 229 229 228 227 226 226 228
212 212 212 213 214 214 215 217 218 220 221 223 225 226 227 228 229 229 229 230 231 232 232 233 233 234 234 234 234 234 234 233 233 233 232 232 232 232 232 232 232 232 232 231 231 230 230 229 230 230 230 231 232 232 232 230 228 227 226 226 227 227 228 228 228 227 226 226 228
210 212 213 213 214 215 216 218 219 221 223 224 226 228 229 229 229 230 231 231 233 233 234 234 234 235 236 235 235 235 235 235 234 234 233 233 233 233 233 233 233 233 232 232 232 232 232 232 232 233 233 233 234 234 233 231 229 228 227 227 227 227 227 227 227 226 226 226 228
210 211 212 213 215 216 218 219 221 223 225 226 228 229 230 230 231 231 232 233 234 234 235 235 236 236 236 236 236 235 235 235 235 235 234 234 234 234 234 234 234 234 234 234 233 234 235 235 235 236 236 235 235 235 234 232 230 228 228 227 227 227 227 227 226 226 225 227 229
209 211 212 214 215 217 219 221 223 225 226 228 229 230 231 231 232 233 233 234 234 235 235 236 237 237 236 236 235 235 235 235 235 236 236 236 236 236 236 236 237 237 237 236 235 236 237 237 237 237 237 236 236 235 235 234 232 230 229 228 228 228 228 228 227 227 227 229 231
210 212 214 216 218 220 222 224 225 226 228 229 230 231 232 233 233 234 235 236 236 236 236 237 237 237 236 236 236 235 235 235 236 237 238 238 238 239 238 239 239 239 239 238 238 238 238 238 238 237 236 236 236 236 236 236 234 233 231 230 229 229 229 229 229 230 230 231 233
213 214 216 218 220 222 224 225 226 227 228 229 230 231 232 233 233 234 235 236 237 238 238 238 237 237 237 237 237 237 237 237 238 239 240 241 241 240 240 241 241 241 240 240 240 240 240 239 238 237 236 235 236 236 237 237 236 235 233 232 231 231 231 231 231 232 233 233 234
215 216 218 219 221 222 223 224 225 226 227 228 229 230 231 232 233 234 234 236 238 239 239 238 238 238 239 239 239 239 240 241 241 242 242 242 242 242 242 242 242 242 242 242 241 241 240 240 239 238 237 237 236 236 236 237 236 235 234 233 233 232 232 232 232 233 233 233 233
214 215 217 218 218 219 220 220 221 223 224 226 227 228 230 232 233 234 235 237 239 239 239 240 240 241 241 242 242 242 243 244 243 243 243 244 243 243 243 244 244 244 244 244 243 242 241 240 240 239 239 238 238 237 237 237 236 235 234 234 233 233 233 233 232 232 232 231 230
211 212 212 213 213 214 215 216 218 220 222 225 227 229 231 233 234 236 238 240 241 241 242 243 244 244 245 246 246 246 246 245 244 244 244 244 244 244 244 244 245 245 246 246 245 244 243 242 241 241 240 239 239 239 239 238 237 236 235 234 233 233 233 232 232 231 230 229 229
207 207 207 207 208 210 212 214 217 219 222 225 228 231 233 235 237 239 241 242 243 244 245 246 247 247 248 249 249 248 247 245 244 244 244 244 244 244 244 245 245 246 247 248 247 246 245 244 243 242 241 240 240 240 240 240 239 238 236 234 233 232 232 232 231 230 229 229 229
204 203 203 205 206 208 211 214 218 221 224 227 231 234 236 238 240 242 243 244 245 246 247 248 248 248 248 248 248 247 246 245 244 244 244 245 244 245 245 246 247 248 249 250 250 250 248 247 245 243 242 242 241 241 242 242 241 239 237 235 233 233 232 232 231 230 230 230 232
202 202 203 204 206 210 213 217 220 224 227 231 234 237 239 241 243 244 245 247 247 248 248 248 248 248 248 247 247 246 246 245 245 245 245 245 246 246 247 248 249 251 252 253 253 253 252 250 248 246 244 243 242 242 243 243 242 240 238 236 235 235 235 234 233 232 232 234 236
201 201 202 204 207 211 215 219 224 228 233 236 240 242 244 246 247 248 249 250 250 250 249 249 248 248 248 247 247 247 246 246 246 246 246 246 247 248 250 251 252 254 255 255 255 254 253 251 250 248 246 245 244 243 243 242 241 239 238 237 237 237 238 238 238 237 237 239 241
197 197 198 202 204 208 214 221 229 235 240 244 247 249 251 252 253 253 254 253 253 253 252 251 250 249 249 249 248 248 247 248 248 248 249 249 250 251 253 255 256 258 259 258 257 255 253 251 249 248 247 246 245 244 244 243 241 239 238 238 238 240 241 242 243 243 244 245 247
190 191 193 197 199 205 215 226 235 242 248 252 255 257 258 258 259 259 259 259 258 257 255 254 253 253 252 252 251 250 251 251 252 252 253 253 254 255 257 258 260 261 262 261 258 256 253 251 249 248 247 247 246 245 245 244 242 240 239 240 241 242 244 245 247 248 249 251 254
182 185 187 189 194 202 217 231 243 252 258 260 261 262 263 264 265 266 266 265 263 261 259 257 257 257 255 254 255 255 256 256 257 257 258 258 258 259 260 261 262 263 263 262 259 256 252 250 248 247 247 248 247 246 245 244 244 243 243 244 245 246 248 250 252 254 256 259 262
169 171 170 170 171 176 188 217 246 261 266 266 267 268 270 272 273 272 272 270 268 266 264 262 261 260 260 260 261 261 261 262 262 263 263 262 262 262 262 263 264 265 264 263 260 256 252 247 244 243 244 248 248 248 247 246 247 247 248 250 251 252 254 256 258 261 263 266 269
151 148 144 139 136 133 133 142 181 248 263 267 272 275 277 279 279 279 278 276 274 271 270 269 267 266 267 267 267 267 268 268 268 268 267 267 266 265 265 266 266 266 265 264 261 257 250 244 240 238 239 244 249 251 251 250 251 252 253 255 256 258 260 262 264 267 269 272 274
137 133 130 125 122 121 123 125 132 151 229 260 272 279 283 286 286 286 284 282 279 276 274 273 273 273 273 274 274 274 274 274 273 272 272 271 269 268 268 268 268 268 267 265 263 257 250 243 238 234 234 237 246 253 256 256 257 258 259 260 262 264 266 269 271 273 276 278 280
131 128 124 121 119 120 121 124 127 138 159 202 247 276 289 296 296 292 286 282 280 278 277 279 280 280 280 281 281 281 281 280 279 277 276 274 272 270 270 269 270 269 269 267 264 259 253 246 241 238 236 237 244 252 258 262 264 265 266 268 270 272 274 276 278 280 282 283 284
128 125 121 119 119 120 122 125 131 137 145 147 145 128 66 354 319 297 289 284 283 283 284 286 287 288 290 290 289 288 287 286 284 282 279 276 275 273 272 272 272 273 271 269 267 263 259 254 250 247 245 244 246 252 258 264 267 270 272 275 277 280 281 283 284 285 286 286 286
127 124 121 119 120 122 124 128 132 134 136 133 125 109 93 72 45 350 312 299 293 290 289 290 291 292 292 293 293 292 291 290 288 286 283 281 279 277 276 276 277 277 276 274 272 269 266 262 259 257 255 254 254 256 260 264 267 271 274 277 279 281 283 285 286 287 288 288 288
126 124 122 121 121 123 125 128 130 131 128 123 115 106 95 84 70 52 13 325 304 297 294 295 295 294 292 292 292 293 293 294 294 292 290 288 285 284 284 284 285 284 283 280 278 276 273 272 271 270 269 268 267 267 267 268 269 271 274 276 278 281 283 285 287 288 289 290 290
124 123 123 122 122 124 126 127 128 126 122 117 112 106 100 95 90 82 67 11 317 308 308 307 303 300 299 300 300 301 303 305 305 302 300 298 297 297 297 298 298 297 296 293 291 290 289 289 288 287 284 280 277 276 275 275 275 276 277 279 281 283 286 287 289 290 291 292 293
122 122 123 123 123 124 124 125 124 122 120 117 115 112 109 107 107 103 92 57 341 330 328 327 320 319 320 320 317 317 318 320 319 317 315 313 314 314 316 318 322 325 322 317 313 311 309 307 305 301 295 288 285 283 283 283 284 284 285 286 287 289 291 293 295 296 297 298 298
120 121 121 121 121 121 121 120 119 118 117 117 117 115 114 112 109 104 93 74 37 13 360 352 352 351 349 344 340 338 339 341 342 340 337 333 331 331 330 333 339 344 342 334 327 323 320 316 313 309 303 297 294 292 292 292 292 292 293 294 296 298 300 302 304 305 305 306 306
117 118 118 118 118 118 117 115 113 112 112 111 111 111 109 107 104 100 94 86 67 49 37 31 28 27 23 15 8 7 6 6 4 360 354 348 341 335 332 332 336 339 337 333 327 324 322 320 319 318 314 310 307 305 304 304 304 305 306 308 310 311 312 313 314 314 314 314 313
115 115 115 114 114 114 113 111 109 107 106 105 104 103 101 99 98 98 97 92 82 71 66 63 63 60 53 43 33 26 21 17 10 3 356 347 336 327 322 322 324 325 326 324 323 323 326 331 335 337 336 333 328 322 319 318 320 322 322 322 320 321 322 322 320 320 320 320 319